Time,TemperatureF,DewpointF,PressureIn,WindDirection,WindDirectionDegrees,WindSpeedMPH,WindSpeedGustMPH,Humidity,HourlyPrecipIn,Conditions,Clouds,dailyrainin,SoftwareType,DateUTC
2013-04-21 00:07:00,70.7,21.0,29.89,ENE,58,2.0,4.0,15,0.00,,,0.00,weatherlink.com 1.10,2013-04-21 07:07:00,
2013-04-21 00:22:00,71.1,21.0,29.89,NE,43,1.0,3.0,15,0.00,,,0.00,weatherlink.com 1.10,2013-04-21 07:22:00,
2013-04-21 00:37:00,70.3,20.0,29.89,NNE,32,3.0,4.0,15,0.00,,,0.00,weatherlink.com 1.10,2013-04-21 07:37:00,
2013-04-21 00:52:00,70.5,21.0,29.89,NE,50,2.0,4.0,15,0.00,,,0.00,weatherlink.com 1.10,2013-04-21 07:52:00,
2013-04-21 01:07:00,71.2,19.0,29.88,NE,37,2.0,4.0,14,0.00,,,0.00,weatherlink.com 1.10,2013-04-21 08:07:00,
2013-04-21 01:22:00,70.2,19.0,29.89,NNE,22,3.0,5.0,14,0.00,,,0.00,weatherlink.com 1.10,2013-04-21 08:22:00,
2013-04-21 01:37:00,69.7,18.0,29.89,NNE,33,0.0,5.0,14,0.00,,,0.00,weatherlink.com 1.10,2013-04-21 08:37:00,
2013-04-21 01:52:00,67.9,21.0,29.89,NW,316,1.0,2.0,17,0.00,,,0.00,weatherlink.com 1.10,2013-04-21 08:52:00,
2013-04-21 02:07:00,66.5,20.0,29.89,NNE,24,4.0,4.0,17,0.00,,,0.00,weatherlink.com 1.10,2013-04-21 09:07:00,
2013-04-21 02:22:00,66.6,20.0,29.89,NNE,27,3.0,5.0,17,0.00,,,0.00,weatherlink.com 1.10,2013-04-21 09:22:00,
2013-04-21 02:37:00,66.5,20.0,29.89,NNE,32,3.0,5.0,17,0.00,,,0.00,weatherlink.com 1.10,2013-04-21 09:37:00,
2013-04-21 02:52:00,65.9,20.0,29.89,NNE,27,5.0,7.0,17,0.00,,,0.00,weatherlink.com 1.10,2013-04-21 09:52:00,
2013-04-21 03:07:00,65.8,20.0,29.89,NNE,24,5.0,6.0,17,0.00,,,0.00,weatherlink.com 1.10,2013-04-21 10:07:00,
2013-04-21 03:22:00,65.5,19.0,29.89,NNE,31,4.0,5.0,17,0.00,,,0.00,weatherlink.com 1.10,2013-04-21 10:22:00,
2013-04-21 03:37:00,65.1,19.0,29.89,NNE,24,4.0,5.0,17,0.00,,,0.00,weatherlink.com 1.10,2013-04-21 10:37:00,
2013-04-21 03:52:00,65.1,19.0,29.89,NNE,32,3.0,5.0,17,0.00,,,0.00,weatherlink.com 1.10,2013-04-21 10:52:00,
2013-04-21 04:07:00,65.9,20.0,29.89,WNW,297,0.0,2.0,17,0.00,,,0.00,weatherlink.com 1.10,2013-04-21 11:07:00,
2013-04-21 04:22:00,64.9,20.0,29.89,NNE,30,1.0,3.0,18,0.00,,,0.00,weatherlink.com 1.10,2013-04-21 11:22:00,
2013-04-21 04:37:00,64.0,19.0,29.89,NNE,28,4.0,4.0,18,0.00,,,0.00,weatherlink.com 1.10,2013-04-21 11:37:00,
2013-04-21 04:52:00,63.6,20.0,29.90,North,11,3.0,5.0,19,0.00,,,0.00,weatherlink.com 1.10,2013-04-21 11:52:00,
2013-04-21 05:07:00,62.9,20.0,29.90,NE,40,2.0,4.0,19,0.00,,,0.00,weatherlink.com 1.10,2013-04-21 12:07:00,
2013-04-21 05:22:00,63.3,19.0,29.90,NNE,27,4.0,4.0,18,0.00,,,0.00,weatherlink.com 1.10,2013-04-21 12:22:00,
2013-04-21 05:37:00,62.6,20.0,29.90,NNE,19,4.0,5.0,19,0.00,,,0.00,weatherlink.com 1.10,2013-04-21 12:37:00,
2013-04-21 05:53:00,62.6,20.0,29.91,NNE,29,4.0,6.0,19,0.00,,,0.00,weatherlink.com 1.10,2013-04-21 12:53:00,
2013-04-21 06:08:00,61.8,20.0,29.92,NE,49,2.0,3.0,20,0.00,,,0.00,weatherlink.com 1.10,2013-04-21 13:08:00,
2013-04-21 06:23:00,62.5,20.0,29.93,NNE,29,3.0,4.0,19,0.00,,,0.00,weatherlink.com 1.10,2013-04-21 13:23:00,
2013-04-21 06:38:00,65.8,20.0,29.93,NNE,32,0.0,0.0,17,0.00,,,0.00,weatherlink.com 1.10,2013-04-21 13:38:00,
2013-04-21 06:53:00,66.2,23.0,29.94,NNE,32,0.0,0.0,19,0.00,,,0.00,weatherlink.com 1.10,2013-04-21 13:53:00,
2013-04-21 07:08:00,64.6,24.0,29.95,NW,311,2.0,2.0,21,0.00,,,0.00,weatherlink.com 1.10,2013-04-21 14:08:00,
2013-04-21 07:23:00,65.8,26.0,29.95,NW,311,0.0,1.0,22,0.00,,,0.00,weatherlink.com 1.10,2013-04-21 14:23:00,
2013-04-21 07:38:00,66.3,26.0,29.95,West,281,2.0,2.0,22,0.00,,,0.00,weatherlink.com 1.10,2013-04-21 14:38:00,
2013-04-21 07:53:00,67.8,27.0,29.96,WSW,255,0.0,2.0,22,0.00,,,0.00,weatherlink.com 1.10,2013-04-21 14:53:00,
2013-04-21 08:08:00,69.0,28.0,29.96,WSW,247,1.0,2.0,22,0.00,,,0.00,weatherlink.com 1.10,2013-04-21 15:08:00,
2013-04-21 08:23:00,70.5,31.0,29.96,WSW,248,1.0,2.0,23,0.00,,,0.00,weatherlink.com 1.10,2013-04-21 15:23:00,
2013-04-21 08:38:00,71.1,30.0,29.96,WNW,293,2.0,3.0,22,0.00,,,0.00,weatherlink.com 1.10,2013-04-21 15:38:00,
2013-04-21 08:53:00,72.6,27.0,29.96,West,274,1.0,3.0,18,0.00,,,0.00,weatherlink.com 1.10,2013-04-21 15:53:00,
2013-04-21 09:08:00,73.7,28.0,29.96,SW,225,1.0,4.0,18,0.00,,,0.00,weatherlink.com 1.10,2013-04-21 16:08:00,
2013-04-21 09:23:00,76.0,27.0,29.95,WSW,258,0.0,3.0,16,0.00,,,0.00,weatherlink.com 1.10,2013-04-21 16:23:00,
2013-04-21 09:38:00,77.4,25.0,29.95,SW,235,2.0,4.0,14,0.00,,,0.00,weatherlink.com 1.10,2013-04-21 16:38:00,
2013-04-21 09:53:00,77.7,23.0,29.95,West,271,2.0,5.0,13,0.00,,,0.00,weatherlink.com 1.10,2013-04-21 16:53:00,
2013-04-21 10:08:00,78.9,26.0,29.95,WNW,285,4.0,4.0,14,0.00,,,0.00,weatherlink.com 1.10,2013-04-21 17:08:00,
2013-04-21 10:23:00,81.7,24.0,29.95,WNW,295,2.0,5.0,12,0.00,,,0.00,weatherlink.com 1.10,2013-04-21 17:23:00,
2013-04-21 10:38:00,82.6,25.0,29.95,WNW,285,1.0,4.0,12,0.00,,,0.00,weatherlink.com 1.10,2013-04-21 17:38:00,
2013-04-21 10:53:00,83.5,24.0,29.94,SSW,211,5.0,5.0,11,0.00,,,0.00,weatherlink.com 1.10,2013-04-21 17:53:00,
2013-04-21 11:08:00,86.0,23.0,29.94,West,261,1.0,5.0,10,0.00,,,0.00,weatherlink.com 1.10,2013-04-21 18:08:00,
2013-04-21 11:23:00,86.3,26.0,29.94,WSW,248,4.0,5.0,11,0.00,,,0.00,weatherlink.com 1.10,2013-04-21 18:23:00,
2013-04-21 11:38:00,87.8,25.0,29.93,WNW,282,1.0,5.0,10,0.00,,,0.00,weatherlink.com 1.10,2013-04-21 18:38:00,
2013-04-21 11:53:00,87.6,22.0,29.92,NW,309,0.0,7.0,9,0.00,,,0.00,weatherlink.com 1.10,2013-04-21 18:53:00,
2013-04-21 12:08:00,90.3,21.0,29.91,SW,234,2.0,5.0,8,0.00,,,0.00,weatherlink.com 1.10,2013-04-21 19:08:00,
2013-04-21 12:23:00,89.3,21.0,29.91,West,268,1.0,7.0,8,0.00,,,0.00,weatherlink.com 1.10,2013-04-21 19:23:00,
2013-04-21 12:38:00,91.8,19.0,29.90,SE,143,1.0,7.0,7,0.00,,,0.00,weatherlink.com 1.10,2013-04-21 19:38:00,
2013-04-21 12:54:00,91.5,19.0,29.89,West,259,4.0,7.0,7,0.00,,,0.00,weatherlink.com 1.10,2013-04-21 19:54:00,
2013-04-21 13:09:00,91.9,16.0,29.89,West,264,5.0,10.0,6,0.00,,,0.00,weatherlink.com 1.10,2013-04-21 20:09:00,
2013-04-21 13:24:00,92.6,16.0,29.88,NW,304,0.0,6.0,6,0.00,,,0.00,weatherlink.com 1.10,2013-04-21 20:24:00,
2013-04-21 13:39:00,91.8,16.0,29.88,NW,307,5.0,11.0,6,0.00,,,0.00,weatherlink.com 1.10,2013-04-21 20:39:00,
2013-04-21 13:54:00,93.4,17.0,29.87,West,276,6.0,9.0,6,0.00,,,0.00,weatherlink.com 1.10,2013-04-21 20:54:00,
2013-04-21 14:09:00,93.8,13.0,29.87,SW,214,9.0,9.0,5,0.00,,,0.00,weatherlink.com 1.10,2013-04-21 21:09:00,
2013-04-21 14:24:00,94.3,13.0,29.86,West,262,1.0,5.0,5,0.00,,,0.00,weatherlink.com 1.10,2013-04-21 21:24:00,
2013-04-21 14:39:00,94.1,13.0,29.86,SW,227,5.0,10.0,5,0.00,,,0.00,weatherlink.com 1.10,2013-04-21 21:39:00,
2013-04-21 14:54:00,93.3,13.0,29.85,WNW,289,3.0,11.0,5,0.00,,,0.00,weatherlink.com 1.10,2013-04-21 21:54:00,
2013-04-21 15:09:00,94.5,14.0,29.84,SW,229,7.0,7.0,5,0.00,,,0.00,weatherlink.com 1.10,2013-04-21 22:09:00,
2013-04-21 15:24:00,95.2,14.0,29.83,WSW,255,3.0,5.0,5,0.00,,,0.00,weatherlink.com 1.10,2013-04-21 22:24:00,
2013-04-21 15:39:00,94.4,13.0,29.83,SE,137,2.0,8.0,5,0.00,,,0.00,weatherlink.com 1.10,2013-04-21 22:39:00,
2013-04-21 15:54:00,94.9,9.0,29.82,SE,135,7.0,8.0,4,0.00,,,0.00,weatherlink.com 1.10,2013-04-21 22:54:00,
2013-04-21 16:09:00,94.8,9.0,29.82,SSW,203,7.0,14.0,4,0.00,,,0.00,weatherlink.com 1.10,2013-04-21 23:09:00,
2013-04-21 16:24:00,94.8,2.0,29.81,ESE,107,4.0,13.0,3,0.00,,,0.00,weatherlink.com 1.10,2013-04-21 23:24:00,
2013-04-21 16:39:00,94.3,8.0,29.81,South,172,9.0,11.0,4,0.00,,,0.00,weatherlink.com 1.10,2013-04-21 23:39:00,
2013-04-21 16:54:00,94.6,14.0,29.81,South,181,3.0,9.0,5,0.00,,,0.00,weatherlink.com 1.10,2013-04-21 23:54:00,
2013-04-21 17:09:00,94.6,14.0,29.80,ESE,108,5.0,14.0,5,0.00,,,0.00,weatherlink.com 1.10,2013-04-22 00:09:00,
2013-04-21 17:24:00,94.4,13.0,29.80,SSW,212,4.0,9.0,5,0.00,,,0.00,weatherlink.com 1.10,2013-04-22 00:24:00,
2013-04-21 17:39:00,93.7,13.0,29.80,SE,145,3.0,13.0,5,0.00,,,0.00,weatherlink.com 1.10,2013-04-22 00:39:00,
2013-04-21 17:54:00,93.6,13.0,29.80,ESE,103,2.0,9.0,5,0.00,,,0.00,weatherlink.com 1.10,2013-04-22 00:54:00,
2013-04-21 18:09:00,94.3,8.0,29.79,South,176,3.0,8.0,4,0.00,,,0.00,weatherlink.com 1.10,2013-04-22 01:09:00,
2013-04-21 18:24:00,93.8,8.0,29.79,SSE,167,5.0,11.0,4,0.00,,,0.00,weatherlink.com 1.10,2013-04-22 01:24:00,
2013-04-21 18:39:00,92.8,7.0,29.79,SE,139,5.0,8.0,4,0.00,,,0.00,weatherlink.com 1.10,2013-04-22 01:39:00,
2013-04-21 18:54:00,91.6,11.0,29.79,SE,126,4.0,8.0,5,0.00,,,0.00,weatherlink.com 1.10,2013-04-22 01:54:00,
2013-04-21 19:09:00,90.3,10.0,29.79,SE,145,4.0,6.0,5,0.00,,,0.00,weatherlink.com 1.10,2013-04-22 02:09:00,
2013-04-21 19:24:00,89.5,14.0,29.79,SSE,150,4.0,7.0,6,0.00,,,0.00,weatherlink.com 1.10,2013-04-22 02:24:00,
2013-04-21 19:39:00,88.5,17.0,29.79,SE,141,2.0,7.0,7,0.00,,,0.00,weatherlink.com 1.10,2013-04-22 02:39:00,
2013-04-21 19:54:00,88.0,20.0,29.80,SE,129,3.0,9.0,8,0.00,,,0.00,weatherlink.com 1.10,2013-04-22 02:54:00,
2013-04-21 20:09:00,87.8,19.0,29.80,SSE,148,2.0,7.0,8,0.00,,,0.00,weatherlink.com 1.10,2013-04-22 03:09:00,
2013-04-21 20:24:00,86.6,19.0,29.80,ESE,104,2.0,3.0,8,0.00,,,0.00,weatherlink.com 1.10,2013-04-22 03:24:00,
2013-04-21 20:39:00,86.1,18.0,29.81,ENE,73,2.0,4.0,8,0.00,,,0.00,weatherlink.com 1.10,2013-04-22 03:39:00,
2013-04-21 20:54:00,85.2,17.0,29.81,ENE,74,2.0,4.0,8,0.00,,,0.00,weatherlink.com 1.10,2013-04-22 03:54:00,
2013-04-21 21:09:00,83.8,19.0,29.82,NE,52,4.0,7.0,9,0.00,,,0.00,weatherlink.com 1.10,2013-04-22 04:09:00,
2013-04-21 21:24:00,83.7,16.0,29.82,NE,49,5.0,8.0,8,0.00,,,0.00,weatherlink.com 1.10,2013-04-22 04:24:00,
2013-04-21 21:39:00,83.1,16.0,29.82,NE,48,4.0,6.0,8,0.00,,,0.00,weatherlink.com 1.10,2013-04-22 04:39:00,
2013-04-21 21:54:00,83.0,16.0,29.83,ENE,58,4.0,7.0,8,0.00,,,0.00,weatherlink.com 1.10,2013-04-22 04:54:00,
2013-04-21 22:09:00,83.0,16.0,29.83,NE,55,2.0,6.0,8,0.00,,,0.00,weatherlink.com 1.10,2013-04-22 05:09:00,
2013-04-21 22:24:00,83.2,16.0,29.83,ENE,63,5.0,7.0,8,0.00,,,0.00,weatherlink.com 1.10,2013-04-22 05:24:00,
2013-04-21 22:39:00,82.9,18.0,29.82,NE,51,4.0,7.0,9,0.00,,,0.00,weatherlink.com 1.10,2013-04-22 05:39:00,
2013-04-21 22:54:00,82.6,18.0,29.82,NE,56,5.0,8.0,9,0.00,,,0.00,weatherlink.com 1.10,2013-04-22 05:54:00,
2013-04-21 23:09:00,82.0,20.0,29.82,ENE,63,4.0,6.0,10,0.00,,,0.00,weatherlink.com 1.10,2013-04-22 06:09:00,
2013-04-21 23:24:00,81.4,20.0,29.83,NE,56,3.0,6.0,10,0.00,,,0.00,weatherlink.com 1.10,2013-04-22 06:24:00,
2013-04-21 23:39:00,81.0,19.0,29.83,NE,44,4.0,7.0,10,0.00,,,0.00,weatherlink.com 1.10,2013-04-22 06:39:00,
2013-04-21 23:54:00,80.8,21.0,29.83,NE,56,7.0,9.0,11,0.00,,,0.00,weatherlink.com 1.10,2013-04-22 06:54:00,